Weather in Ucharal

Kazakhstan     46°11′06″N   80°49′48″E
temp.,
°C
wind,
m/s
gust,
m/s
humid.,
%
clouds,
%
prec.,
mm/h
press.,
hPa
HPBL,
m
18 october, mon
mon1800:00+8e22534 0.0 102311
03:00+7e225472 0.0 102312
06:00+6e22580 0.0 102410
09:00+10ene23480 0.0 1024163
12:00+15ene66320 0.0 1022774
15:00+16ene67280 0.0 1020881
18:00+12ene34370 0.0 102039
21:00+9ene35470 0.0 102074
19 october, tue
tue1900:00+8ene49570 0.0 1020162
03:00+9e59470 0.0 1018175
06:00+8e58500 0.0 1019173
09:00+11e47420 0.0 1018407
12:00+16e65260 0.0 1017700
15:00+18ese12210 0.0 1016675
18:00+13e33350 0.0 101619
21:00+10e33480 0.0 101729
20 october, wed
wed2000:00+8w00530 0.0 101711
03:00+7ne11540 0.0 101711
06:00+6w01670 0.0 101811
09:00+12ene11350 0.0 101962
12:00+17nne11240 0.0 1018389
15:00+19ene11195 0.0 1016597
18:00+14e2227100 0.0 101711
21:00+13ese2329100 0.0 101716
21 october, thu
thu2100:00+12e333281 0.0 101718
03:00+9e2254100 0.0 101718
06:00+9se0153100 0.0 101711
09:00+13n1136100 0.0 101733
12:00+19e2322100 0.0 1016454
15:00+21ne221959 0.0 1015615
18:00+16ene3327100 0.0 101524
21:00+13nne113744 0.0 101511
22 october, fri
fri2200:00+14wsw3332100 0.0 101628
03:00+13wsw91451100 0.0 1020457
06:00+11w5974100 0.0 1021612
09:00+10wsw3687100 1.4 1023391
12:00+10w4682100 3.7 1023494
15:00+11wsw4765100 1.8 10241015
18:00+10wnw5960100 1.8 1027897
21:00+8sw61058100 0.1 1030472